| time (UTC) | temp F | wind direction | speed MPH | gust MPH | rain 1hr in | rain 24hr in | rain mn in | humidity % | barometer mb |
| 20260906095404 | 79 | 84 | 7.0 | 14.0 | 0.00 | 0.00 | 0.00 | 72 | 1019.7 |
| 20260906094905 | 79 | 132 | 9.0 | 16.0 | 0.00 | 0.00 | 0.00 | 71 | 1019.8 |
| 20260906094404 | 79 | 102 | 6.0 | 13.0 | 0.00 | 0.00 | 0.00 | 71 | 1019.9 |
| 20260906093904 | 78 | 85 | 8.0 | 14.0 | 0.00 | 0.00 | 0.00 | 71 | 1019.9 |
| 20260906093405 | 79 | 144 | 7.0 | 15.0 | 0.00 | 0.00 | 0.00 | 72 | 1019.9 |
| 20260906092904 | 79 | 88 | 6.0 | 17.0 | 0.00 | 0.00 | 0.00 | 72 | 1019.9 |
| 20260906092405 | 79 | 90 | 8.0 | 17.0 | 0.00 | 0.00 | 0.00 | 73 | 1020.0 |
| 20260906090905 | 79 | 63 | 7.0 | 13.0 | 0.00 | 0.00 | 0.00 | 73 | 1020.1 |
| 20260906090404 | 79 | 128 | 8.0 | 15.0 | 0.00 | 0.00 | 0.00 | 73 | 1020.2 |
| 20260906085905 | 79 | 79 | 6.0 | 15.0 | 0.00 | 0.00 | 0.00 | 72 | 1020.2 |
| 20260906085405 | 78 | 89 | 8.0 | 13.0 | 0.00 | 0.00 | 0.00 | 72 | 1020.2 |
| 20260906084905 | 78 | 118 | 7.0 | 17.0 | 0.00 | 0.00 | 0.00 | 73 | 1020.2 |
| 20260906084405 | 78 | 133 | 8.0 | 18.0 | 0.00 | 0.00 | 0.00 | 74 | 1020.3 |
| 20260906083905 | 78 | 126 | 9.0 | 17.0 | 0.00 | 0.00 | 0.00 | 73 | 1020.3 |
| 20260906083405 | 78 | 76 | 10.0 | 14.0 | 0.00 | 0.00 | 0.00 | 72 | 1020.5 |
| 20260906082905 | 78 | 95 | 10.0 | 18.0 | 0.00 | 0.00 | 0.00 | 71 | 1020.6 |
| 20260906082404 | 78 | 92 | 9.0 | 15.0 | 0.00 | 0.00 | 0.00 | 72 | 1020.7 |
| 20260906081904 | 79 | 73 | 4.0 | 12.0 | 0.00 | 0.00 | 0.00 | 72 | 1020.7 |
| 20260906081405 | 78 | 109 | 7.0 | 14.0 | 0.00 | 0.00 | 0.00 | 72 | 1020.7 |
| 20260906080904 | 78 | 132 | 8.0 | 16.0 | 0.00 | 0.00 | 0.00 | 73 | 1020.7 |
| 20260906080405 | 78 | 61 | 9.0 | 15.0 | 0.00 | 0.00 | 0.00 | 73 | 1020.8 |
| 20260906075404 | 78 | 96 | 10.0 | 17.0 | 0.00 | 0.00 | 0.00 | 73 | 1020.9 |
| 20260906074905 | 78 | 112 | 9.0 | 15.0 | 0.00 | 0.00 | 0.00 | 73 | 1021.0 |
| 20260906074404 | 78 | 87 | 6.0 | 14.0 | 0.00 | 0.00 | 0.00 | 73 | 1021.0 |
| 20260906073905 | 78 | 83 | 7.0 | 14.0 | 0.00 | 0.00 | 0.00 | 72 | 1021.1 |
| 20260906073404 | 78 | 114 | 9.0 | 14.0 | 0.00 | 0.00 | 0.00 | 72 | 1021.2 |
| 20260906072904 | 78 | 95 | 7.0 | 14.0 | 0.00 | 0.00 | 0.00 | 73 | 1021.3 |
| 20260906071905 | 78 | 97 | 7.0 | 13.0 | 0.00 | 0.00 | 0.00 | 74 | 1021.2 |
| 20260906071405 | 78 | 87 | 7.0 | 15.0 | 0.00 | 0.00 | 0.00 | 75 | 1021.2 |
| 20260906070905 | 78 | 117 | 9.0 | 15.0 | 0.00 | 0.00 | 0.00 | 74 | 1021.3 |
| 20260906070405 | 78 | 128 | 7.0 | 15.0 | 0.00 | 0.00 | 0.00 | 73 | 1021.3 |
| 20260906065905 | 78 | 128 | 7.0 | 17.0 | 0.00 | 0.00 | 0.00 | 74 | 1021.3 |
| 20260906065405 | 78 | 105 | 9.0 | 16.0 | 0.00 | 0.00 | 0.00 | 72 | 1021.5 |
| 20260906064404 | 78 | 85 | 6.0 | 15.0 | 0.00 | 0.00 | 0.00 | 73 | 1021.7 |
| 20260906062404 | 78 | 76 | 7.0 | 15.0 | 0.00 | 0.00 | 0.00 | 73 | 1021.8 |
| 20260906061904 | 78 | 64 | 9.0 | 14.0 | 0.00 | 0.00 | 0.00 | 72 | 1022.0 |
| 20260906061405 | 78 | 98 | 7.0 | 14.0 | 0.00 | 0.00 | 0.00 | 73 | 1022.0 |
| 20260906060904 | 77 | 101 | 10.0 | 17.0 | 0.00 | 0.00 | 0.00 | 73 | 1022.0 |
| 20260906060405 | 77 | 111 | 6.0 | 16.0 | 0.00 | 0.00 | 0.00 | 74 | 1022.0 |
| 20260906055405 | 77 | 84 | 9.0 | 16.0 | 0.00 | 0.00 | 0.00 | 74 | 1022.2 |
| 20260906054905 | 77 | 154 | 7.0 | 16.0 | 0.00 | 0.00 | 0.00 | 76 | 1022.1 |
| 20260906054404 | 77 | 121 | 5.0 | 12.0 | 0.00 | 0.00 | 0.00 | 76 | 1022.0 |
| 20260906053904 | 76 | 104 | 8.0 | 16.0 | 0.00 | 0.00 | 0.00 | 76 | 1022.0 |
| 20260906053405 | 76 | 144 | 7.0 | 13.0 | 0.00 | 0.00 | 0.00 | 77 | 1022.0 |
| 20260906052904 | 76 | 126 | 8.0 | 17.0 | 0.00 | 0.00 | 0.00 | 77 | 1022.1 |
| 20260906052405 | 75 | 107 | 7.0 | 14.0 | 0.00 | 0.00 | 0.00 | 78 | 1022.0 |
| 20260906051905 | 75 | 136 | 4.0 | 12.0 | 0.00 | 0.00 | 0.00 | 79 | 1021.9 |
| 20260906051404 | 74 | 120 | 7.0 | 14.0 | 0.00 | 0.00 | 0.00 | 79 | 1022.0 |
| 20260906050905 | 75 | 111 | 8.0 | 14.0 | 0.00 | 0.00 | 0.00 | 78 | 1022.0 |
| 20260906050405 | 75 | 106 | 5.0 | 10.0 | 0.00 | 0.00 | 0.00 | 78 | 1022.0 |
| 20260906045904 | 75 | 88 | 8.0 | 16.0 | 0.00 | 0.00 | 0.00 | 77 | 1022.0 |
| 20260906044904 | 76 | 113 | 5.0 | 12.0 | 0.00 | 0.00 | 0.00 | 78 | 1021.8 |
| 20260906043904 | 75 | 110 | 0.0 | 7.0 | 0.00 | 0.00 | 0.00 | 79 | 1022.0 |
| 20260906043405 | 75 | 140 | 2.0 | 8.0 | 0.00 | 0.00 | 0.00 | 78 | 1021.9 |
| 20260906042405 | 75 | 157 | 0.0 | 1.0 | 0.00 | 0.00 | 0.00 | 78 | 1021.7 |
| 20260906041404 | 74 | 164 | 3.0 | 8.0 | 0.00 | 0.00 | 0.00 | 79 | 1021.7 |
| 20260906040904 | 74 | 139 | 0.0 | 6.0 | 0.00 | 0.00 | 0.00 | 79 | 1021.7 |
| 20260906040404 | 74 | 153 | 1.0 | 10.0 | 0.00 | 0.00 | 0.00 | 79 | 1021.7 |
| 20260906035905 | 74 | 155 | 4.0 | 9.0 | 0.00 | 0.00 | 0.00 | 80 | 1021.6 |
| 20260906034904 | 73 | 168 | 0.0 | 1.0 | 0.00 | 0.00 | 0.00 | 81 | 1021.5 |
| 20260906033904 | 72 | 162 | 2.0 | 8.0 | 0.00 | 0.00 | 0.00 | 83 | 1021.6 |
| 20260906033405 | 71 | 200 | 2.0 | 8.0 | 0.00 | 0.00 | 0.00 | 83 | 1021.5 |
| 20260906032905 | 71 | 177 | 3.0 | 9.0 | 0.00 | 0.00 | 0.00 | 84 | 1021.5 |
| 20260906031904 | 70 | 178 | 2.0 | 10.0 | 0.00 | 0.00 | 0.00 | 84 | 1021.4 |
| 20260906031405 | 70 | 163 | 3.0 | 8.0 | 0.00 | 0.00 | 0.00 | 85 | 1021.3 |
| 20260906030905 | 70 | 169 | 3.0 | 8.0 | 0.00 | 0.00 | 0.00 | 85 | 1021.3 |
| 20260906030404 | 70 | 183 | 3.0 | 10.0 | 0.00 | 0.00 | 0.00 | 85 | 1021.3 |
| 20260906025904 | 69 | 183 | 3.0 | 10.0 | 0.00 | 0.00 | 0.00 | 85 | 1021.2 |
| 20260906025405 | 70 | 203 | 1.0 | 5.0 | 0.00 | 0.00 | 0.00 | 84 | 1021.3 |
| 20260906024905 | 70 | 155 | 2.0 | 10.0 | 0.00 | 0.00 | 0.00 | 84 | 1021.2 |
| 20260906023405 | 69 | 167 | 3.0 | 9.0 | 0.00 | 0.00 | 0.00 | 85 | 1021.2 |
| 20260906022905 | 69 | 165 | 4.0 | 8.0 | 0.00 | 0.00 | 0.00 | 85 | 1021.1 |
| 20260906021904 | 69 | 161 | 3.0 | 9.0 | 0.00 | 0.00 | 0.00 | 84 | 1021.1 |
| 20260906021405 | 69 | 184 | 5.0 | 12.0 | 0.00 | 0.00 | 0.00 | 84 | 1020.9 |
| 20260906020405 | 69 | 149 | 2.0 | 6.0 | 0.00 | 0.00 | 0.00 | 84 | 1020.8 |
| 20260906015905 | 69 | 180 | 1.0 | 8.0 | 0.00 | 0.00 | 0.00 | 84 | 1020.7 |
| 20260906015405 | 69 | 171 | 2.0 | 6.0 | 0.00 | 0.00 | 0.00 | 84 | 1020.6 |
| 20260906014905 | 69 | 170 | 2.0 | 8.0 | 0.00 | 0.00 | 0.00 | 84 | 1020.7 |
| 20260906014404 | 69 | 153 | 4.0 | 12.0 | 0.00 | 0.00 | 0.00 | 84 | 1020.8 |
| 20260906013904 | 69 | 153 | 3.0 | 9.0 | 0.00 | 0.00 | 0.00 | 85 | 1020.8 |
| 20260906013405 | 69 | 162 | 3.0 | 12.0 | 0.00 | 0.00 | 0.00 | 85 | 1020.7 |
| 20260906012904 | 69 | 166 | 3.0 | 10.0 | 0.00 | 0.00 | 0.00 | 85 | 1020.8 |
| 20260906012404 | 69 | 140 | 2.0 | 7.0 | 0.00 | 0.00 | 0.00 | 85 | 1020.8 |
| 20260906011905 | 69 | 144 | 2.0 | 7.0 | 0.00 | 0.00 | 0.00 | 85 | 1020.6 |
| 20260906011405 | 69 | 168 | 3.0 | 7.0 | 0.00 | 0.00 | 0.00 | 85 | 1020.7 |
| 20260906010905 | 69 | 180 | 2.0 | 7.0 | 0.00 | 0.00 | 0.00 | 84 | 1020.7 |
| 20260906010404 | 69 | 166 | 3.0 | 7.0 | 0.00 | 0.00 | 0.00 | 84 | 1020.6 |
| 20260906005905 | 69 | 170 | 5.0 | 9.0 | 0.00 | 0.00 | 0.00 | 84 | 1020.5 |
| 20260906005405 | 69 | 158 | 4.0 | 9.0 | 0.00 | 0.00 | 0.00 | 84 | 1020.4 |
| 20260906004905 | 69 | 162 | 2.0 | 7.0 | 0.00 | 0.00 | 0.00 | 85 | 1020.6 |
| 20260906004405 | 69 | 158 | 3.0 | 7.0 | 0.00 | 0.00 | 0.00 | 85 | 1020.5 |
| 20260906003905 | 69 | 148 | 4.0 | 8.0 | 0.00 | 0.00 | 0.00 | 85 | 1020.5 |
| 20260906003405 | 69 | 160 | 2.0 | 6.0 | 0.00 | 0.00 | 0.00 | 85 | 1020.5 |
| 20260906002905 | 69 | 159 | 3.0 | 7.0 | 0.00 | 0.00 | 0.00 | 85 | 1020.4 |
| 20260906002404 | 69 | 161 | 3.0 | 7.0 | 0.00 | 0.00 | 0.00 | 85 | 1020.4 |
| 20260906001904 | 69 | 180 | 3.0 | 7.0 | 0.00 | 0.00 | 0.00 | 84 | 1020.4 |
| 20260906001404 | 69 | 194 | 4.0 | 8.0 | 0.00 | 0.00 | 0.00 | 84 | 1020.4 |
| 20260906000904 | 69 | 176 | 2.0 | 6.0 | 0.00 | 0.00 | 0.00 | 84 | 1020.5 |
| 20260906000405 | 69 | 163 | 2.0 | 8.0 | 0.00 | 0.00 | 0.00 | 84 | 1020.5 |
| 20260905235904 | 69 | 161 | 3.0 | 9.0 | 0.00 | 0.00 | 0.00 | 85 | 1020.5 |
| 20260905235405 | 69 | 165 | 1.0 | 6.0 | 0.00 | 0.00 | 0.00 | 85 | 1020.5 |
| 20260905234904 | 69 | 153 | 1.0 | 6.0 | 0.00 | 0.00 | 0.00 | 85 | 1020.5 |
| 20260905234405 | 69 | 166 | 0.0 | 6.0 | 0.00 | 0.00 | 0.00 | 85 | 1020.6 |
| 20260905233904 | 69 | 169 | 0.0 | 6.0 | 0.00 | 0.00 | 0.00 | 85 | 1020.7 |
| 20260905233405 | 69 | 173 | 4.0 | 8.0 | 0.00 | 0.00 | 0.00 | 85 | 1020.6 |
| 20260905231905 | 68 | 165 | 3.0 | 10.0 | 0.00 | 0.00 | 0.00 | 85 | 1020.6 |
| 20260905231404 | 68 | 162 | 2.0 | 7.0 | 0.00 | 0.00 | 0.00 | 85 | 1020.6 |
| 20260905230905 | 68 | 172 | 1.0 | 7.0 | 0.00 | 0.00 | 0.00 | 85 | 1020.5 |
| 20260905230405 | 68 | 170 | 3.0 | 7.0 | 0.00 | 0.00 | 0.00 | 85 | 1020.7 |
| 20260905225904 | 68 | 158 | 1.0 | 6.0 | 0.00 | 0.00 | 0.00 | 85 | 1020.8 |
| 20260905225404 | 68 | 183 | 0.0 | 0.0 | 0.00 | 0.00 | 0.00 | 85 | 1020.8 |
| 20260905224904 | 68 | 184 | 0.0 | 0.0 | 0.00 | 0.00 | 0.00 | 85 | 1020.8 |
| 20260905224405 | 68 | 184 | 1.0 | 3.0 | 0.00 | 0.00 | 0.00 | 84 | 1020.7 |
| 20260905223905 | 69 | 179 | 3.0 | 7.0 | 0.00 | 0.00 | 0.00 | 84 | 1020.8 |
| 20260905223404 | 69 | 176 | 4.0 | 7.0 | 0.00 | 0.00 | 0.00 | 84 | 1020.7 |
| 20260905222905 | 69 | 157 | 1.0 | 8.0 | 0.00 | 0.00 | 0.00 | 84 | 1020.7 |
| 20260905222405 | 69 | 166 | 5.0 | 8.0 | 0.00 | 0.00 | 0.00 | 84 | 1020.8 |
| 20260905221905 | 69 | 175 | 3.0 | 7.0 | 0.00 | 0.00 | 0.00 | 84 | 1020.9 |
| 20260905221404 | 69 | 184 | 2.0 | 5.0 | 0.00 | 0.00 | 0.00 | 83 | 1020.8 |
| 20260905220405 | 69 | 163 | 2.0 | 7.0 | 0.00 | 0.00 | 0.00 | 83 | 1020.7 |
| 20260905215904 | 69 | 178 | 3.0 | 6.0 | 0.00 | 0.00 | 0.00 | 83 | 1020.8 |
| 20260905215404 | 69 | 182 | 0.0 | 2.0 | 0.00 | 0.00 | 0.00 | 83 | 1020.8 |
| 20260905214405 | 69 | 177 | 2.0 | 6.0 | 0.00 | 0.00 | 0.00 | 82 | 1020.9 |
| 20260905213405 | 70 | 181 | 2.0 | 8.0 | 0.00 | 0.00 | 0.00 | 82 | 1021.0 |
| 20260905212904 | 70 | 188 | 0.0 | 0.0 | 0.00 | 0.00 | 0.00 | 82 | 1021.0 |
| 20260905212404 | 70 | 193 | 0.0 | 3.0 | 0.00 | 0.00 | 0.00 | 82 | 1021.1 |
| 20260905211905 | 70 | 184 | 1.0 | 7.0 | 0.00 | 0.00 | 0.00 | 82 | 1021.2 |
| 20260905211405 | 70 | 198 | 3.0 | 7.0 | 0.00 | 0.00 | 0.00 | 82 | 1021.2 |
| 20260905210904 | 69 | 179 | 2.0 | 6.0 | 0.00 | 0.00 | 0.00 | 82 | 1021.2 |
| 20260905210405 | 69 | 185 | 3.0 | 7.0 | 0.00 | 0.00 | 0.00 | 82 | 1021.3 |
| 20260905205905 | 69 | 191 | 2.0 | 8.0 | 0.00 | 0.00 | 0.00 | 82 | 1021.3 |
| 20260905205405 | 69 | 188 | 2.0 | 6.0 | 0.00 | 0.00 | 0.00 | 82 | 1021.5 |
| 20260905204904 | 69 | 177 | 2.0 | 9.0 | 0.00 | 0.00 | 0.00 | 82 | 1021.4 |
| 20260905204404 | 69 | 178 | 4.0 | 9.0 | 0.00 | 0.00 | 0.00 | 82 | 1021.4 |
| 20260905203904 | 69 | 175 | 2.0 | 7.0 | 0.00 | 0.00 | 0.00 | 82 | 1021.5 |
| 20260905203404 | 69 | 165 | 1.0 | 7.0 | 0.00 | 0.00 | 0.00 | 82 | 1021.4 |
| 20260905202905 | 69 | 180 | 1.0 | 7.0 | 0.00 | 0.00 | 0.00 | 82 | 1021.4 |
| 20260905202405 | 69 | 197 | 4.0 | 8.0 | 0.00 | 0.00 | 0.00 | 81 | 1021.5 |
| 20260905201404 | 69 | 180 | 3.0 | 7.0 | 0.00 | 0.00 | 0.00 | 81 | 1021.4 |
| 20260905200904 | 69 | 171 | 2.0 | 7.0 | 0.00 | 0.00 | 0.00 | 81 | 1021.3 |
| 20260905200404 | 69 | 172 | 2.0 | 7.0 | 0.00 | 0.00 | 0.00 | 81 | 1021.4 |
| 20260905195404 | 69 | 180 | 2.0 | 5.0 | 0.00 | 0.00 | 0.00 | 81 | 1021.3 |
| 20260905194905 | 69 | 201 | 3.0 | 6.0 | 0.00 | 0.00 | 0.00 | 81 | 1021.4 |
| 20260905194405 | 69 | 169 | 1.0 | 9.0 | 0.00 | 0.00 | 0.00 | 81 | 1021.3 |
| 20260905193905 | 69 | 175 | 1.0 | 6.0 | 0.00 | 0.00 | 0.00 | 81 | 1021.4 |
| 20260905192404 | 69 | 171 | 3.0 | 6.0 | 0.00 | 0.00 | 0.00 | 80 | 1021.4 |
| 20260905191905 | 69 | 171 | 4.0 | 7.0 | 0.00 | 0.00 | 0.00 | 80 | 1021.4 |
| 20260905191405 | 69 | 171 | 3.0 | 8.0 | 0.00 | 0.00 | 0.00 | 80 | 1021.5 |
| 20260905190904 | 69 | 176 | 3.0 | 9.0 | 0.00 | 0.00 | 0.00 | 80 | 1021.6 |
| 20260905185904 | 69 | 170 | 2.0 | 6.0 | 0.00 | 0.01 | 0.00 | 80 | 1021.5 |
| 20260905185405 | 69 | 168 | 3.0 | 7.0 | 0.00 | 0.02 | 0.00 | 80 | 1021.4 |
| 20260905184905 | 69 | 169 | 4.0 | 10.0 | 0.00 | 0.02 | 0.00 | 80 | 1021.3 |
| 20260905184404 | 69 | 170 | 1.0 | 7.0 | 0.00 | 0.02 | 0.00 | 80 | 1021.5 |
| 20260905183904 | 69 | 171 | 5.0 | 9.0 | 0.00 | 0.02 | 0.00 | 80 | 1021.5 |
| 20260905183405 | 69 | 172 | 2.0 | 7.0 | 0.00 | 0.02 | 0.00 | 80 | 1021.5 |
| 20260905182904 | 69 | 161 | 1.0 | 7.0 | 0.00 | 0.02 | 0.00 | 79 | 1021.6 |
| 20260905182404 | 69 | 170 | 0.0 | 6.0 | 0.00 | 0.02 | 0.00 | 79 | 1021.6 |
| 20260905181904 | 69 | 165 | 4.0 | 9.0 | 0.00 | 0.02 | 0.00 | 79 | 1021.6 |
| 20260905180905 | 70 | 160 | 2.0 | 8.0 | 0.00 | 0.02 | 0.00 | 78 | 1021.7 |
| 20260905180405 | 70 | 165 | 2.0 | 7.0 | 0.00 | 0.02 | 0.00 | 78 | 1021.8 |
| 20260905175905 | 70 | 137 | 0.0 | 7.0 | 0.00 | 0.02 | 0.00 | 78 | 1021.8 |
| 20260905175404 | 70 | 5 | 1.0 | 7.0 | 0.00 | 0.02 | 0.00 | 78 | 1021.7 |
| 20260905174905 | 70 | 171 | 3.0 | 7.0 | 0.00 | 0.02 | 0.00 | 78 | 1021.6 |
| 20260905174405 | 70 | 67 | 3.0 | 5.0 | 0.00 | 0.02 | 0.00 | 78 | 1021.5 |
| 20260905173905 | 70 | 137 | 2.0 | 9.0 | 0.00 | 0.02 | 0.00 | 78 | 1021.5 |
| 20260905173404 | 70 | 164 | 3.0 | 9.0 | 0.00 | 0.02 | 0.00 | 78 | 1021.6 |
| 20260905172905 | 70 | 155 | 2.0 | 10.0 | 0.00 | 0.02 | 0.00 | 78 | 1021.5 |
| 20260905172405 | 70 | 154 | 4.0 | 9.0 | 0.00 | 0.02 | 0.00 | 78 | 1021.6 |
| 20260905171904 | 70 | 130 | 3.0 | 9.0 | 0.00 | 0.02 | 0.00 | 78 | 1021.7 |
| 20260905170904 | 70 | 130 | 5.0 | 12.0 | 0.00 | 0.02 | 0.00 | 78 | 1021.7 |
| 20260905170404 | 70 | 117 | 4.0 | 9.0 | 0.00 | 0.02 | 0.00 | 78 | 1021.7 |
| 20260905165905 | 71 | 113 | 4.0 | 9.0 | 0.00 | 0.02 | 0.00 | 78 | 1021.6 |
| 20260905165405 | 71 | 120 | 5.0 | 12.0 | 0.00 | 0.02 | 0.00 | 77 | 1021.5 |
| 20260905164904 | 71 | 118 | 6.0 | 13.0 | 0.00 | 0.02 | 0.00 | 77 | 1021.4 |
| 20260905164405 | 71 | 119 | 4.0 | 12.0 | 0.00 | 0.02 | 0.00 | 77 | 1021.3 |
| 20260905163905 | 71 | 137 | 6.0 | 13.0 | 0.00 | 0.02 | 0.00 | 77 | 1021.3 |
| 20260905163404 | 71 | 97 | 6.0 | 12.0 | 0.00 | 0.02 | 0.00 | 77 | 1021.3 |
| 20260905162904 | 71 | 103 | 5.0 | 12.0 | 0.00 | 0.02 | 0.00 | 78 | 1021.1 |
| 20260905162404 | 71 | 117 | 4.0 | 10.0 | 0.00 | 0.02 | 0.00 | 78 | 1021.0 |
| 20260905161904 | 70 | 134 | 3.0 | 9.0 | 0.00 | 0.02 | 0.00 | 78 | 1021.1 |
| 20260905161405 | 70 | 129 | 5.0 | 9.0 | 0.00 | 0.02 | 0.00 | 78 | 1020.9 |
| 20260905160904 | 70 | 116 | 4.0 | 9.0 | 0.00 | 0.02 | 0.00 | 78 | 1020.8 |
| 20260905160405 | 70 | 111 | 5.0 | 8.0 | 0.00 | 0.02 | 0.00 | 78 | 1020.8 |
| 20260905155905 | 70 | 125 | 3.0 | 10.0 | 0.00 | 0.02 | 0.00 | 78 | 1020.7 |
| 20260905155404 | 70 | 138 | 4.0 | 9.0 | 0.00 | 0.02 | 0.00 | 78 | 1020.7 |
| 20260905154405 | 71 | 135 | 3.0 | 9.0 | 0.00 | 0.02 | 0.00 | 78 | 1020.6 |
| 20260905153405 | 71 | 144 | 3.0 | 7.0 | 0.00 | 0.02 | 0.00 | 77 | 1020.7 |
| 20260905152905 | 71 | 143 | 3.0 | 8.0 | 0.00 | 0.02 | 0.00 | 77 | 1020.6 |
| 20260905152404 | 71 | 137 | 4.0 | 10.0 | 0.00 | 0.02 | 0.00 | 77 | 1020.6 |
| 20260905151905 | 71 | 111 | 4.0 | 8.0 | 0.00 | 0.02 | 0.00 | 77 | 1020.6 |
| 20260905151404 | 71 | 143 | 0.0 | 6.0 | 0.00 | 0.02 | 0.00 | 77 | 1020.4 |
| 20260905145904 | 72 | 100 | 2.0 | 7.0 | 0.00 | 0.02 | 0.00 | 77 | 1020.1 |
| 20260905145404 | 72 | 141 | 2.0 | 6.0 | 0.00 | 0.02 | 0.00 | 77 | 1020.2 |
| 20260905144905 | 72 | 106 | 2.0 | 7.0 | 0.00 | 0.02 | 0.00 | 77 | 1020.1 |
| 20260905144404 | 72 | 138 | 0.0 | 3.0 | 0.00 | 0.02 | 0.00 | 76 | 1020.0 |
| 20260905143904 | 72 | 124 | 3.0 | 6.0 | 0.00 | 0.02 | 0.00 | 76 | 1019.9 |
| 20260905143404 | 72 | 147 | 0.0 | 3.0 | 0.00 | 0.02 | 0.00 | 76 | 1019.9 |
| 20260905142904 | 73 | 108 | 1.0 | 5.0 | 0.00 | 0.02 | 0.00 | 76 | 1019.8 |
| 20260905142404 | 73 | 0 | 1.0 | 3.0 | 0.00 | 0.02 | 0.00 | 76 | 1019.8 |
| 20260905141905 | 73 | 125 | 1.0 | 3.0 | 0.00 | 0.02 | 0.00 | 76 | 1019.9 |
| 20260905141404 | 73 | 135 | 1.0 | 6.0 | 0.00 | 0.02 | 0.00 | 75 | 1019.8 |
| 20260905140904 | 73 | 147 | 3.0 | 9.0 | 0.00 | 0.02 | 0.00 | 75 | 1019.8 |
| 20260905140404 | 74 | 143 | 3.0 | 9.0 | 0.00 | 0.02 | 0.00 | 75 | 1019.7 |
| 20260905135904 | 74 | 125 | 1.0 | 8.0 | 0.00 | 0.02 | 0.00 | 75 | 1019.7 |
| 20260905135404 | 74 | 102 | 3.0 | 9.0 | 0.00 | 0.02 | 0.00 | 74 | 1019.8 |
| 20260905134904 | 75 | 113 | 5.0 | 13.0 | 0.00 | 0.02 | 0.00 | 74 | 1019.7 |
| 20260905133904 | 75 | 139 | 6.0 | 14.0 | 0.00 | 0.02 | 0.00 | 73 | 1019.7 |
| 20260905133404 | 75 | 138 | 6.0 | 16.0 | 0.00 | 0.02 | 0.00 | 73 | 1019.6 |
| 20260905132904 | 75 | 125 | 6.0 | 12.0 | 0.00 | 0.02 | 0.00 | 73 | 1019.6 |
| 20260905132405 | 76 | 167 | 5.0 | 12.0 | 0.00 | 0.02 | 0.00 | 73 | 1019.4 |
| 20260905131904 | 76 | 124 | 2.0 | 9.0 | 0.00 | 0.02 | 0.00 | 73 | 1019.4 |
| 20260905131404 | 76 | 120 | 6.0 | 12.0 | 0.00 | 0.02 | 0.00 | 72 | 1019.2 |
| 20260905130404 | 76 | 127 | 5.0 | 10.0 | 0.00 | 0.02 | 0.00 | 72 | 1019.2 |
| 20260905125905 | 76 | 154 | 3.0 | 13.0 | 0.00 | 0.02 | 0.00 | 71 | 1019.1 |
| 20260905125404 | 77 | 149 | 5.0 | 12.0 | 0.00 | 0.02 | 0.00 | 71 | 1019.2 |
| 20260905124906 | 77 | 98 | 3.0 | 12.0 | 0.00 | 0.02 | 0.00 | 71 | 1019.0 |
| 20260905124404 | 77 | 85 | 4.0 | 12.0 | 0.00 | 0.02 | 0.00 | 71 | 1018.9 |
| 20260905122904 | 77 | 94 | 4.0 | 12.0 | 0.00 | 0.02 | 0.00 | 71 | 1019.0 |
| 20260905122404 | 77 | 89 | 3.0 | 16.0 | 0.00 | 0.02 | 0.00 | 73 | 1019.0 |
| 20260905121905 | 77 | 60 | 8.0 | 14.0 | 0.00 | 0.02 | 0.00 | 73 | 1018.9 |
| 20260905121404 | 77 | 85 | 6.0 | 15.0 | 0.00 | 0.02 | 0.00 | 73 | 1018.9 |
| 20260905120904 | 77 | 83 | 8.0 | 16.0 | 0.00 | 0.02 | 0.00 | 72 | 1018.8 |
| 20260905120404 | 78 | 89 | 7.0 | 15.0 | 0.00 | 0.02 | 0.00 | 70 | 1018.8 |
| 20260905115404 | 77 | 94 | 8.0 | 14.0 | 0.00 | 0.02 | 0.00 | 70 | 1018.8 |
| 20260905114904 | 78 | 91 | 7.0 | 18.0 | 0.00 | 0.02 | 0.00 | 70 | 1018.8 |
| 20260905114405 | 78 | 70 | 7.0 | 15.0 | 0.00 | 0.02 | 0.00 | 69 | 1018.7 |
| 20260905113404 | 78 | 90 | 7.0 | 15.0 | 0.00 | 0.02 | 0.00 | 68 | 1018.8 |
| 20260905112904 | 79 | 101 | 5.0 | 13.0 | 0.00 | 0.02 | 0.00 | 67 | 1018.8 |
| 20260905111904 | 79 | 116 | 6.0 | 14.0 | 0.00 | 0.02 | 0.00 | 66 | 1018.8 |
| 20260905111405 | 78 | 78 | 8.0 | 14.0 | 0.00 | 0.02 | 0.00 | 67 | 1018.8 |
| 20260905110404 | 78 | 98 | 7.0 | 14.0 | 0.00 | 0.02 | 0.00 | 68 | 1019.0 |
| 20260905105404 | 78 | 86 | 8.0 | 14.0 | 0.00 | 0.02 | 0.00 | 69 | 1019.1 |
| 20260905104905 | 78 | 101 | 6.0 | 15.0 | 0.00 | 0.02 | 0.00 | 68 | 1019.1 |
| 20260905103905 | 79 | 124 | 7.0 | 13.0 | 0.00 | 0.02 | 0.00 | 68 | 1019.2 |
| 20260905102404 | 79 | 106 | 8.0 | 14.0 | 0.00 | 0.02 | 0.00 | 68 | 1019.3 |
| 20260905101905 | 78 | 96 | 6.0 | 17.0 | 0.00 | 0.02 | 0.00 | 69 | 1019.3 |
| 20260905101405 | 78 | 76 | 7.0 | 15.0 | 0.00 | 0.02 | 0.00 | 68 | 1019.4 |
| 20260905100404 | 78 | 87 | 6.0 | 14.0 | 0.00 | 0.02 | 0.00 | 68 | 1019.6 |
| 20260905095905 | 79 | 105 | 10.0 | 15.0 | 0.00 | 0.02 | 0.00 | 66 | 1019.7 |